Flag for Norway Weather past 2 weeks in Kragerø, Norway

Now
61 °F

Cool.


Feels Like: 61 °F
Forecast: 56 / 68 °F
Wind: 12 mph from Southwest

Location: Jomfruland Fyr

Current Time: Jul 7, 2015 at 1:41:01 PM

Latest Report: Jul 7, 2015 at 1:00 PM


Visibility: N/A

Pressure: 29.67 "Hg

Humidity: 76%

Dew point: 53 °F

Location of KragerøLocation

Historic Weather in Kragerø — Graph

°F

Kragerø temperature yesterday

Maximum temperature yesterday: 68 °F (at 7:00 PM)
Minimum temperature yesterday: 60 °F (at 2:00 AM)
Average temperature yesterday: 64 °F

Past Weeks' High & Low Weather Summary

 TemperatureHumidityPressure
High69 °F (Jun 30, 11:00 AM)97% (Jul 4, 1:00 AM)30.36 "Hg (Jul 4, 1:00 AM)
Low52 °F (Jun 26, 5:00 AM)29% (Jun 25, 8:00 PM)29.59 "Hg (Jul 6, 1:00 PM)
Average61 °F75%29.97 "Hg
* Reported Jun 22 12:00 Noon — Jul 7 12:00 Noon, Kragerø, Weather by CustomWeather, © 2015

Note: Actual official high and low records may vary slightly from our data, if they occured in-between our weather recording intervals... More about our weather records

Advertising

Kragerø weather history for previous 24 hours

 ConditionsComfort  
Time TempWeatherWind HumidityBarometerVisibility
12:00 PM
Tue, Jul 7
60 °FCool.12 mph79%29.66 "HgN/A
11:00 AM64 °FMild.12 mph56%29.66 "HgN/A
10:00 AM64 °FMild.8 mph55%29.66 "HgN/A
9:00 AM62 °FCool.7 mph60%29.68 "HgN/A
8:00 AM60 °FCool.12 mph61%29.67 "HgN/A
7:00 AM58 °FCool.10 mph65%29.69 "HgN/A
6:00 AM57 °FCool.12 mph67%29.69 "HgN/A
5:00 AM56 °FCool.10 mph71%29.70 "HgN/A
4:00 AM56 °FCool.12 mph68%29.70 "HgN/A
3:00 AM57 °FCool.13 mph70%29.70 "HgN/A
2:00 AM57 °FCool.12 mph71%29.71 "HgN/A
1:00 AM58 °FCool.10 mph71%29.71 "HgN/A
12:00 AM59 °FCool.9 mph63%29.72 "HgN/A
10:00 PM
Mon, Jul 6
63 °FMild.12 mph54%29.69 "HgN/A
9:00 PM65 °FMild.13 mph53%29.67 "HgN/A
8:00 PM67 °FMild.14 mph52%29.66 "HgN/A
7:00 PM68 °FMild.12 mph46%29.67 "HgN/A
6:00 PM67 °FMild.12 mph49%29.69 "HgN/A
5:00 PM66 °FMild.14 mph52%29.69 "HgN/A
4:00 PM66 °FMild.13 mph55%29.67 "HgN/A
3:00 PM65 °FMild.16 mph57%29.65 "HgN/A
2:00 PM66 °FMild.14 mph52%29.63 "HgN/A
1:00 PM67 °FMild.13 mph61%29.59 "HgN/A
Weather by CustomWeather, © 2015

See weather overviewHow to use our weather pages